Location: Newark
(50.8809°N, 1.2665°W)
Time: 01:13:01
(UTC+00:00)

ISS - Visible Passes

Search period start: 29 March 2020 00:00
Search period end: 08 April 2020 00:00
Orbit: 417 x 423 km, 51.6° (Epoch: 29 March)

Date Brightness Start Highest point End Pass type
(mag) Time Alt. Az. Time Alt. Az. Time Alt. Az.
29 Mar -3.8 19:42:40 10° W 19:46:03 85° NNE 19:48:12 21° E visible
29 Mar -1.6 21:19:34 10° W 21:21:10 23° W 21:21:10 23° W visible
30 Mar -3.4 20:32:09 10° W 20:35:25 50° SSW 20:35:41 48° S visible
31 Mar -3.6 19:44:45 10° WNW 19:48:06 66° SSW 19:50:14 20° ESE visible
31 Mar -1.2 21:22:05 10° W 21:23:12 15° WSW 21:23:12 15° WSW visible
01 Apr -2.3 20:34:25 10° W 20:37:16 26° SW 20:37:46 25° SSW visible
02 Apr -2.7 19:46:52 10° W 19:50:00 36° SSW 19:52:21 15° SSE visible
03 Apr -1.2 20:37:23 10° WSW 20:38:52 12° SW 20:39:57 11° SSW visible
04 Apr -1.5 19:49:18 10° W 19:51:41 18° SW 19:54:03 10° S visible
